SCP
0 0 0 0 0 0 0 0 0 0 0 -0 0 -0 -0 -0 0 0 0 -0 0 0 0 0 0 1 0 0 0 0 0 0 0 0 0 0 0 0 0 0 0 0 0 0 0 0 0 0 0
0 0 0 0 0 0 0 0 0 0 0 0 0 0 0 -0 0 0 0 0 0 0 0 0 0 1 1 1 0 0 1 0 0 0 0 0 0 0 0 0 0 0 0 0 0 0 0 0 0
0 0 0 0 0 0 0 0 0 0 0 0 0 0 0 0 0 0 0 0 0 0 0 0 0 1 1 1 1 0 1 0 0 0 0 0 0 0 0 0 0 0 0 0 0 0 0 0 0
0 0 0 0 0 0 0 0 0 0 0 0 0 0 0 0 0 0 0 0 0 0 0 0 0 0 1 1 1 1 1 0 0 1 0 0 0 0 0 0 0 0 0 0 0 0 1 1 0
0 0 0 0 0 0 0 0 0 0 0 0 0 0 0 0 0 0 0 0 0 0 0 0 0 0 0 1 1 1 1 1 0 0 0 0 0 0 0 0 1 1 0 0 0 1 1 1 1
0 0 0 0 0 0 0 0 0 0 0 0 0 0 0 0 0 0 0 0 0 0 0 0 0 0 0 0 1 1 1 1 1 0 0 0 0 0 0 0 0 0 0 1 1 1 1 1 1
-0 0 0 0 0 0 0 0 0 0 0 0 0 0 0 0 0 0 0 0 0 0 0 0 0 0 0 0 1 1 1 1 1 1 0 0 0 0 0 0 0 0 1 1 1 1 1 1 1
-0 0 0 0 0 0 0 0 0 0 0 0 0 0 0 0 0 0 0 0 0 0 0 0 0 0 0 0 0 1 1 1 1 1 0 0 0 0 0 0 0 0 1 1 1 1 1 1 1
0 0 0 0 0 0 0 0 0 0 0 0 0 0 0 0 0 0 0 0 0 0 0 0 0 0 0 0 0 0 1 1 1 0 0 0 0 0 0 0 0 0 1 1 0 1 1 1 0
0 0 0 0 0 0 0 0 0 0 0 0 0 0 0 0 0 0 0 0 0 0 0 0 0 0 0 0 0 1 0 1 1 1 0 0 0 0 0 0 0 0 0 0 0 1 0 0 0
0 0 0 0 0 -0 0 0 0 0 0 0 0 0 0 0 -0 -0 0 0 0 0 0 0 0 0 0 0 0 1 1 1 1 1 1 1 1 1 1 1 1 1 0 1 1 0 0 0 0
0 0 0 0 0 0 0 0 0 0 0 0 0 0 0 0 0 0 0 0 0 0 0 0 0 0 0 0 0 0 1 1 1 1 1 2 2 1 1 1 1 1 0 0 0 0 0 0 0
0 0 0 0 0 0 0 0 0 0 0 0 0 0 0 0 0 0 0 0 0 0 0 0 0 0 0 0 0 0 0 1 1 1 1 1 2 2 2 1 1 0 0 0 0 0 0 0 0
0 0 0 0 0 0 0 0 0 0 0 0 0 -0 0 0 0 0 0 0 0 0 0 0 0 0 0 0 0 0 0 0 1 1 1 1 1 2 2 2 1 0 0 0 0 0 0 0 0
0 0 0 0 0 0 0 0 0 0 0 0 0 0 0 0 0 0 0 0 0 0 0 0 0 0 0 0 0 0 0 0 0 1 1 1 1 1 1 2 2 0 0 0 0 0 0 0 0
-0 -0 0 0 0 0 0 0 0 0 0 0 0 0 0 0 0 0 0 0 0 0 0 0 0 0 -0 0 0 0 0 0 0 0 1 1 1 1 2 1 2 0 0 0 0 0 0 0 0
0 0 0 0 0 0 0 0 0 0 0 0 0 0 0 0 0 0 0 0 0 0 0 0 -0 -0 -0 -0 -0 0 0 0 0 0 0 0 1 1 1 1 1 1 0 0 0 0 0 0 0
0 0 0 0 0 0 0 0 0 0 0 0 0 0 0 0 0 0 0 0 0 0 0 0 0 -0 -0 -0 -0 -0 0 0 0 0 1 1 0 0 1 1 1 1 0 0 0 0 0 0 0
0 0 0 0 0 0 0 0 0 0 0 0 0 0 0 0 0 0 0 0 0 0 0 0 0 0 0 -0 -0 -0 -0 -0 -0 0 0 1 1 0 0 1 0 1 0 0 0 0 0 0 0
0 0 0 0 0 0 0 0 0 0 0 0 0 0 0 0 0 0 0 0 0 0 0 0 0 0 0 0 0 0 -0 0 -0 -0 -0 0 0 1 0 0 0 0 0 0 0 0 0 0 0
0 0 0 0 0 0 0 0 0 0 0 0 0 0 0 0 0 0 0 0 0 0 0 0 0 0 0 0 0 0 0 -0 -0 -0 -0 -0 0 0 0 0 0 0 0 0 0 0 0 0 0
0 0 0 0 0 0 0 0 0 0 0 0 0 0 0 0 0 0 0 0 0 0 0 0 0 0 0 0 0 0 0 -0 -0 -0 -0 -0 -0 0 0 0 0 0 0 0 0 0 0 0 0
0 0 0 0 0 0 0 0 0 0 0 0 0 0 0 0 0 0 0 0 0 0 0 0 0 0 0 0 0 0 0 -0 -0 -0 -0 -0 -0 -0 0 0 0 0 0 0 0 0 0 0 0
0 0 0 0 0 0 0 0 0 0 0 0 0 0 0 0 0 0 0 0 0 0 0 0 0 0 0 0 -0 0 0 -0 -0 -0 -0 -0 -0 -0 -0 0 0 0 0 0 0 0 0 0 0
0 0 0 0 0 0 0 0 0 0 0 0 0 0 0 0 0 0 0 0 0 0 0 0 0 0 0 -0 -0 -0 -0 0 -0 -0 -0 -0 -0 -0 -0 0 0 0 0 0 0 0 0 0 0
0 0 0 0 0 0 0 0 0 0 0 0 0 0 0 0 0 0 0 0 0 0 0 0 0 0 0 0 0 0 -0 -0 0 -0 -0 -0 -0 -0 -0 -0 0 0 0 0 0 0 0 0 0
0 0 0 0 0 0 0 0 0 0 0 0 0 0 0 0 0 0 0 0 0 0 0 0 0 0 -0 -0 -0 0 0 0 0 0 -0 -0 -0 -0 -0 -0 -0 0 0 0 0 0 0 0 0
0 0 0 0 0 0 0 0 0 0 0 0 0 0 0 0 0 0 0 0 0 0 0 0 0 0 -0 -0 0 -0 0 0 0 0 0 -0 -0 -0 -0 -0 -0 0 0 0 0 0 0 0 0
0 0 0 0 0 0 0 0 0 0 0 0 0 0 0 0 0 0 0 0 0 0 0 0 0 0 -0 -0 0 0 -0 0 0 0 0 -0 -0 -0 -0 -0 -0 -0 0 0 0 0 0 0 0
0 0 0 0 0 0 0 0 0 0 0 0 0 0 0 0 0 0 0 0 0 0 0 0 0 0 0 0 0 0 0 0 0 0 0 0 -0 -0 -0 -0 -0 -0 -0 0 0 0 0 0 0
Wind_Speed_500mb
8 9 3 3 9 10 8 8 7 9 10 15 13 15 25 24 15 14 27 37 36 30 28 21 23 30 36 39 39 37 35 36 36 35 33 32 33 35 38 39 37 36 33 34 34 35 33 37 40
7 7 2 6 8 2 9 7 10 15 16 16 17 14 16 17 17 22 24 24 35 32 32 24 24 26 30 34 38 40 40 40 40 40 39 36 33 34 36 38 37 34 35 35 35 39 36 39 44
6 5 8 6 4 8 3 5 8 8 7 8 11 7 14 14 18 17 25 45 42 34 31 33 28 30 31 33 42 46 45 45 45 46 44 42 39 36 35 36 32 30 32 34 37 41 40 43 50
3 4 9 9 5 5 4 8 11 10 8 1 11 16 5 11 16 21 37 42 39 33 32 37 37 40 46 49 51 53 52 52 50 49 49 47 42 37 36 34 32 29 32 34 37 44 44 48 53
6 7 7 1 6 3 2 9 13 12 9 12 8 14 22 9 20 31 40 46 44 33 38 41 43 47 48 51 54 57 58 56 55 53 52 51 46 40 35 34 38 36 37 38 40 48 49 51 57
9 7 9 3 5 2 3 7 11 13 11 10 10 21 7 18 32 49 45 39 36 39 39 46 46 47 52 55 55 57 57 59 60 59 57 55 50 46 43 42 38 37 37 39 43 51 53 55 62
10 7 6 5 5 4 3 10 14 18 20 18 14 10 9 44 48 45 42 39 36 36 42 47 49 50 54 56 57 60 60 61 61 63 61 57 53 49 48 46 41 40 40 40 48 56 55 59 64
9 6 3 4 8 3 4 14 9 15 14 12 14 17 35 48 48 40 37 36 38 44 47 42 42 48 54 57 61 65 68 72 67 65 62 59 55 52 51 47 47 44 44 41 51 61 59 62 67
6 7 2 5 5 7 4 15 15 7 7 16 15 28 37 36 38 39 43 48 48 46 34 33 48 44 46 54 54 59 64 70 70 69 65 61 57 55 53 53 51 49 47 43 51 60 60 64 72
7 6 8 10 12 14 20 16 19 10 24 29 30 36 35 37 42 46 53 56 59 63 63 57 42 42 47 47 51 56 54 57 67 73 72 68 63 57 46 46 51 49 42 42 49 57 68 69 78
4 8 5 6 9 19 18 9 8 13 23 27 34 37 33 38 47 50 51 54 56 56 65 69 72 51 43 49 57 52 55 58 64 70 76 72 68 58 54 55 49 49 45 44 48 55 72 77 77
9 9 0 3 11 16 15 13 9 27 23 37 27 25 33 41 47 54 56 59 63 63 67 74 75 72 54 47 52 58 63 58 65 70 71 73 70 61 56 51 53 53 50 49 49 60 51 94 78
5 11 2 7 18 13 13 13 8 24 33 29 27 33 36 39 42 46 51 54 60 63 66 69 74 75 68 57 45 53 65 71 71 71 72 71 74 68 62 55 58 56 52 53 52 46 63 33 50
3 14 12 3 4 6 16 5 10 8 36 32 31 31 34 39 44 50 62 62 64 64 69 70 69 71 67 61 54 52 63 67 74 80 79 72 73 71 66 62 62 60 55 54 58 74 66 67 33
9 8 19 12 4 3 26 14 10 15 29 25 26 27 28 36 44 53 57 59 61 64 69 77 75 70 73 70 61 58 58 71 69 78 85 79 72 72 63 68 66 68 61 62 67 65 62 58 69
6 4 6 12 6 5 20 23 13 28 16 22 15 18 22 30 39 50 56 58 63 67 68 75 74 78 73 71 62 58 62 58 72 74 84 84 81 73 69 71 70 66 65 67 63 64 65 67 74
17 10 19 9 11 4 10 25 15 19 25 22 14 21 29 33 35 48 58 62 66 63 61 67 73 73 78 75 67 64 57 57 61 75 79 83 85 83 74 75 73 68 73 72 72 74 69 79 76
24 25 16 23 4 19 17 27 29 23 31 18 18 23 31 36 39 46 53 57 59 59 56 61 70 72 72 72 74 69 68 64 51 64 79 83 84 85 83 78 80 77 79 81 81 75 80 83 84
21 21 26 28 13 14 25 31 14 32 20 13 15 24 33 40 44 49 52 56 58 62 64 62 67 70 73 77 72 75 74 74 81 60 68 75 83 91 82 93 89 83 91 84 86 80 87 89 92
23 31 29 14 6 22 29 33 35 29 15 10 11 23 33 42 52 57 56 60 65 70 73 68 70 74 71 70 72 69 79 81 79 84 71 85 81 86 103 93 92 92 92 89 93 95 97 97 108
25 29 19 19 26 33 29 36 31 28 22 10 8 21 31 47 59 60 60 70 75 77 79 81 77 86 84 79 75 78 72 85 80 70 88 91 66 87 87 100 106 103 101 99 97 106 109 104 103
25 10 19 28 27 22 35 16 27 37 27 7 12 27 43 61 64 61 69 87 81 91 90 86 82 84 83 78 78 76 76 71 82 90 81 90 91 90 84 94 94 115 113 108 111 113 116 119 112
12 19 20 31 36 42 27 14 20 36 29 5 16 33 50 63 59 68 82 90 92 94 97 100 92 95 86 79 79 81 81 73 73 85 92 82 85 85 78 101 101 96 121 121 117 114 125 122 117
17 20 35 39 25 13 3 5 13 8 4 6 22 44 62 64 64 70 87 89 97 103 105 98 94 99 87 87 87 85 83 83 78 79 90 83 71 76 87 79 91 100 120 106 112 114 122 121 121
15 18 14 7 9 18 19 15 23 19 10 9 26 50 59 57 64 78 93 94 105 109 110 102 96 101 98 95 90 90 87 82 79 82 82 86 83 64 61 63 80 103 96 116 106 111 121 122 115
2 6 7 14 13 27 28 17 10 25 18 4 34 55 54 60 70 85 93 93 100 104 100 98 99 87 85 81 81 82 82 79 74 79 76 89 75 71 66 60 68 101 110 99 117 115 119 127 122
12 11 8 10 7 12 15 21 12 22 7 15 43 54 55 63 75 86 90 95 101 99 95 97 106 104 103 98 87 72 64 73 78 78 77 87 81 71 77 58 83 52 103 120 114 124 125 127 135
8 11 5 8 9 14 15 39 23 13 16 25 44 53 58 71 81 85 84 95 97 103 104 105 98 96 98 91 85 96 89 67 55 73 78 73 75 79 67 72 71 89 82 120 138 118 127 130 125
10 11 12 9 8 9 18 12 10 8 9 31 44 55 65 77 87 89 96 99 100 104 103 102 99 96 94 89 82 82 82 94 70 58 73 75 77 72 63 62 65 58 54 122 119 134 126 133 127
14 23 29 12 14 16 17 30 27 9 9 34 49 58 69 75 82 86 94 91 95 97 101 99 95 92 90 89 91 87 84 80 87 74 58 54 73 67 71 63 63 64 81 72 125 125 124 126 132
Wind_Direction_500mb
44 88 138 249 236 247 63 70 340 348 340 6 327 316 336 317 308 325 321 318 316 306 304 295 265 249 244 245 243 239 237 243 248 254 259 262 262 257 254 254 251 253 249 245 240 224 223 221 215
36 110 160 270 270 337 81 8 353 5 352 327 318 310 288 316 336 314 314 304 316 308 292 276 270 254 254 250 246 244 242 246 249 251 256 260 264 259 254 252 253 250 247 241 236 224 221 221 212
40 124 249 259 308 64 37 9 352 348 321 311 315 316 310 326 334 309 307 311 311 305 284 266 264 263 255 253 254 249 249 249 250 252 256 259 265 260 250 249 250 247 247 240 231 221 223 221 212
333 242 244 260 80 106 342 22 0 335 122 199 329 306 319 303 317 321 325 328 318 302 281 266 267 262 264 265 256 250 247 252 251 251 254 260 264 256 248 243 250 244 247 241 230 217 220 221 211
321 263 247 252 105 85 234 0 344 337 338 338 344 316 323 359 339 344 333 329 324 309 295 283 273 264 264 262 261 256 254 254 255 256 256 257 261 257 246 239 245 241 242 239 230 215 217 218 213
272 289 242 325 67 91 187 357 333 330 333 315 313 327 4 9 356 338 334 331 324 311 296 293 284 267 261 260 258 257 255 253 255 254 255 255 258 257 251 249 245 245 246 240 231 217 216 214 214
291 278 360 349 34 196 56 342 329 343 334 40 332 304 338 4 352 343 346 344 338 325 312 304 295 278 266 263 260 258 256 255 254 252 252 255 255 254 254 252 248 248 245 241 228 217 218 213 210
287 268 262 71 28 37 51 319 332 329 20 9 5 13 354 344 348 356 1 1 349 338 335 317 299 293 285 267 263 260 260 259 256 250 251 251 251 250 254 254 250 248 244 240 225 218 217 215 208
311 245 281 54 308 356 73 334 357 325 314 45 31 24 359 358 8 17 18 16 11 0 343 323 313 295 283 281 267 267 263 259 255 250 250 251 248 249 254 254 252 245 241 237 223 218 216 209 205
281 286 63 25 328 317 334 351 338 346 53 20 9 359 16 20 28 30 26 22 18 15 8 358 326 301 290 273 272 265 266 260 247 247 250 250 247 246 244 248 247 244 238 235 220 215 218 211 208
23 348 45 56 306 320 328 340 339 337 61 20 355 0 24 28 27 29 26 21 18 14 13 9 5 340 301 285 280 266 265 256 253 250 247 250 248 240 242 241 238 236 232 224 204 212 221 212 205
294 69 41 241 290 319 340 326 42 66 65 360 28 50 40 35 30 25 21 16 14 11 6 7 6 4 348 308 282 278 263 259 255 253 249 245 241 237 235 236 232 230 231 224 211 206 190 203 186
240 101 26 295 298 312 328 357 80 73 15 35 70 54 41 37 31 23 18 13 10 7 3 359 2 1 353 342 304 281 276 262 255 254 251 245 239 237 235 232 228 232 229 224 212 189 182 154 162
347 301 278 113 312 291 353 328 184 71 5 74 72 54 40 32 24 17 13 8 6 2 359 354 353 357 350 347 332 303 274 274 259 256 250 249 241 235 231 229 229 229 230 228 215 216 227 240 238
300 297 113 151 216 288 323 193 166 2 12 83 56 40 32 26 21 16 8 3 358 358 355 358 352 349 346 342 338 323 309 273 271 257 258 250 245 234 228 232 229 231 224 223 222 223 231 235 218
210 225 5 129 233 183 330 304 103 19 72 111 69 44 26 16 15 9 4 358 355 353 351 350 350 345 341 341 329 325 315 295 274 267 259 250 246 237 227 232 228 230 220 217 220 208 195 188 179
205 332 315 299 213 213 318 297 317 50 120 121 69 32 14 7 6 2 360 357 351 347 344 345 348 343 337 332 330 316 310 306 287 276 262 259 247 242 232 232 226 221 212 205 206 192 190 187 188
303 303 300 291 36 312 277 279 314 96 125 113 58 24 15 12 4 353 349 351 351 347 339 336 339 336 332 327 323 318 304 299 299 288 273 262 249 246 237 226 227 219 212 207 207 207 202 195 189
299 290 293 290 112 306 304 300 335 125 136 122 49 23 16 13 357 352 351 349 348 347 338 332 334 329 328 324 318 317 316 307 293 296 291 268 258 246 230 233 225 220 216 210 208 201 197 196 186
293 291 298 313 191 310 308 297 134 156 142 129 37 20 11 358 350 349 350 349 345 341 338 326 322 328 317 312 310 310 308 306 314 294 284 290 258 247 245 236 229 225 219 209 209 202 195 191 192
288 302 316 298 305 282 286 283 157 173 154 135 32 3 358 353 351 351 352 345 339 334 331 326 320 317 317 305 305 306 305 305 305 308 286 274 297 252 246 235 234 229 225 214 210 204 197 190 193
297 12 316 304 310 302 317 290 169 181 179 130 18 4 354 350 353 352 344 340 335 329 325 320 315 313 312 304 299 300 302 297 302 304 312 292 268 293 253 239 233 220 232 217 207 205 201 198 194
297 342 303 290 285 298 277 242 258 166 200 103 9 359 354 352 348 346 340 334 329 325 322 317 311 312 308 303 295 296 294 295 295 297 300 318 280 279 314 234 227 232 219 221 207 207 202 204 199
303 287 299 275 268 263 142 260 237 183 181 356 357 355 352 347 343 336 334 328 325 324 320 316 310 309 307 301 298 292 291 291 293 289 293 304 298 277 282 239 230 227 218 215 208 209 207 205 205
261 307 313 298 232 276 152 317 248 142 128 36 356 353 346 342 336 333 330 328 325 324 322 318 317 310 308 302 298 292 290 285 288 285 285 297 313 296 286 292 239 225 227 215 215 208 205 204 198
316 291 263 288 295 294 313 254 294 135 142 10 352 351 344 336 332 330 328 326 325 323 321 316 318 317 312 309 304 295 291 282 283 282 278 287 301 302 275 283 301 220 214 226 208 210 209 202 200
139 215 14 288 261 278 237 239 142 159 215 350 342 347 340 331 329 328 326 327 326 326 323 318 315 311 304 299 291 290 299 288 282 280 277 280 291 305 288 275 257 310 225 210 207 208 205 200 201
264 123 180 201 270 269 268 299 273 188 340 340 345 339 333 328 326 328 328 328 329 327 325 323 320 314 310 309 301 289 284 285 296 281 274 275 283 293 291 284 271 256 225 206 207 200 200 197 197
186 217 222 285 241 263 299 283 114 5 358 345 333 334 330 330 329 329 328 330 328 329 326 323 321 318 314 309 311 306 299 277 276 293 278 272 277 283 283 295 286 253 295 206 200 202 201 203 199
273 244 215 217 216 226 266 275 281 224 355 343 333 330 329 328 326 324 328 327 328 328 327 324 322 318 313 310 306 305 303 296 283 275 285 284 270 274 286 290 301 264 252 251 210 198 206 205 198
Wind_Speed_850mb
8 9 3 3 9 10 8 8 7 9 10 15 13 15 25 24 15 14 27 37 36 30 28 21 23 30 36 39 39 37 35 36 36 35 33 32 33 35 38 39 37 36 33 34 34 35 33 37 40
7 7 2 6 8 2 9 7 10 15 16 16 17 14 16 17 17 22 24 24 35 32 32 24 24 26 30 34 38 40 40 40 40 40 39 36 33 34 36 38 37 34 35 35 35 39 36 39 44
6 5 8 6 4 8 3 5 8 8 7 8 11 7 14 14 18 17 25 45 42 34 31 33 28 30 31 33 42 46 45 45 45 46 44 42 39 36 35 36 32 30 32 34 37 41 40 43 50
3 4 9 9 5 5 4 8 11 10 8 1 11 16 5 11 16 21 37 42 39 33 32 37 37 40 46 49 51 53 52 52 50 49 49 47 42 37 36 34 32 29 32 34 37 44 44 48 53
6 7 7 1 6 3 2 9 13 12 9 12 8 14 22 9 20 31 40 46 44 33 38 41 43 47 48 51 54 57 58 56 55 53 52 51 46 40 35 34 38 36 37 38 40 48 49 51 57
9 7 9 3 5 2 3 7 11 13 11 10 10 21 7 18 32 49 45 39 36 39 39 46 46 47 52 55 55 57 57 59 60 59 57 55 50 46 43 42 38 37 37 39 43 51 53 55 62
10 7 6 5 5 4 3 10 14 18 20 18 14 10 9 44 48 45 42 39 36 36 42 47 49 50 54 56 57 60 60 61 61 63 61 57 53 49 48 46 41 40 40 40 48 56 55 59 64
9 6 3 4 8 3 4 14 9 15 14 12 14 17 35 48 48 40 37 36 38 44 47 42 42 48 54 57 61 65 68 72 67 65 62 59 55 52 51 47 47 44 44 41 51 61 59 62 67
6 7 2 5 5 7 4 15 15 7 7 16 15 28 37 36 38 39 43 48 48 46 34 33 48 44 46 54 54 59 64 70 70 69 65 61 57 55 53 53 51 49 47 43 51 60 60 64 72
7 6 8 10 12 14 20 16 19 10 24 29 30 36 35 37 42 46 53 56 59 63 63 57 42 42 47 47 51 56 54 57 67 73 72 68 63 57 46 46 51 49 42 42 49 57 68 69 78
4 8 5 6 9 19 18 9 8 13 23 27 34 37 33 38 47 50 51 54 56 56 65 69 72 51 43 49 57 52 55 58 64 70 76 72 68 58 54 55 49 49 45 44 48 55 72 77 77
9 9 0 3 11 16 15 13 9 27 23 37 27 25 33 41 47 54 56 59 63 63 67 74 75 72 54 47 52 58 63 58 65 70 71 73 70 61 56 51 53 53 50 49 49 60 51 94 78
5 11 2 7 18 13 13 13 8 24 33 29 27 33 36 39 42 46 51 54 60 63 66 69 74 75 68 57 45 53 65 71 71 71 72 71 74 68 62 55 58 56 52 53 52 46 63 33 50
3 14 12 3 4 6 16 5 10 8 36 32 31 31 34 39 44 50 62 62 64 64 69 70 69 71 67 61 54 52 63 67 74 80 79 72 73 71 66 62 62 60 55 54 58 74 66 67 33
9 8 19 12 4 3 26 14 10 15 29 25 26 27 28 36 44 53 57 59 61 64 69 77 75 70 73 70 61 58 58 71 69 78 85 79 72 72 63 68 66 68 61 62 67 65 62 58 69
6 4 6 12 6 5 20 23 13 28 16 22 15 18 22 30 39 50 56 58 63 67 68 75 74 78 73 71 62 58 62 58 72 74 84 84 81 73 69 71 70 66 65 67 63 64 65 67 74
17 10 19 9 11 4 10 25 15 19 25 22 14 21 29 33 35 48 58 62 66 63 61 67 73 73 78 75 67 64 57 57 61 75 79 83 85 83 74 75 73 68 73 72 72 74 69 79 76
24 25 16 23 4 19 17 27 29 23 31 18 18 23 31 36 39 46 53 57 59 59 56 61 70 72 72 72 74 69 68 64 51 64 79 83 84 85 83 78 80 77 79 81 81 75 80 83 84
21 21 26 28 13 14 25 31 14 32 20 13 15 24 33 40 44 49 52 56 58 62 64 62 67 70 73 77 72 75 74 74 81 60 68 75 83 91 82 93 89 83 91 84 86 80 87 89 92
23 31 29 14 6 22 29 33 35 29 15 10 11 23 33 42 52 57 56 60 65 70 73 68 70 74 71 70 72 69 79 81 79 84 71 85 81 86 103 93 92 92 92 89 93 95 97 97 108
25 29 19 19 26 33 29 36 31 28 22 10 8 21 31 47 59 60 60 70 75 77 79 81 77 86 84 79 75 78 72 85 80 70 88 91 66 87 87 100 106 103 101 99 97 106 109 104 103
25 10 19 28 27 22 35 16 27 37 27 7 12 27 43 61 64 61 69 87 81 91 90 86 82 84 83 78 78 76 76 71 82 90 81 90 91 90 84 94 94 115 113 108 111 113 116 119 112
12 19 20 31 36 42 27 14 20 36 29 5 16 33 50 63 59 68 82 90 92 94 97 100 92 95 86 79 79 81 81 73 73 85 92 82 85 85 78 101 101 96 121 121 117 114 125 122 117
17 20 35 39 25 13 3 5 13 8 4 6 22 44 62 64 64 70 87 89 97 103 105 98 94 99 87 87 87 85 83 83 78 79 90 83 71 76 87 79 91 100 120 106 112 114 122 121 121
15 18 14 7 9 18 19 15 23 19 10 9 26 50 59 57 64 78 93 94 105 109 110 102 96 101 98 95 90 90 87 82 79 82 82 86 83 64 61 63 80 103 96 116 106 111 121 122 115
2 6 7 14 13 27 28 17 10 25 18 4 34 55 54 60 70 85 93 93 100 104 100 98 99 87 85 81 81 82 82 79 74 79 76 89 75 71 66 60 68 101 110 99 117 115 119 127 122
12 11 8 10 7 12 15 21 12 22 7 15 43 54 55 63 75 86 90 95 101 99 95 97 106 104 103 98 87 72 64 73 78 78 77 87 81 71 77 58 83 52 103 120 114 124 125 127 135
8 11 5 8 9 14 15 39 23 13 16 25 44 53 58 71 81 85 84 95 97 103 104 105 98 96 98 91 85 96 89 67 55 73 78 73 75 79 67 72 71 89 82 120 138 118 127 130 125
10 11 12 9 8 9 18 12 10 8 9 31 44 55 65 77 87 89 96 99 100 104 103 102 99 96 94 89 82 82 82 94 70 58 73 75 77 72 63 62 65 58 54 122 119 134 126 133 127
14 23 29 12 14 16 17 30 27 9 9 34 49 58 69 75 82 86 94 91 95 97 101 99 95 92 90 89 91 87 84 80 87 74 58 54 73 67 71 63 63 64 81 72 125 125 124 126 132
Wind_Direction_850mb
44 88 138 249 236 247 63 70 340 348 340 6 327 316 336 317 308 325 321 318 316 306 304 295 265 249 244 245 243 239 237 243 248 254 259 262 262 257 254 254 251 253 249 245 240 224 223 221 215
36 110 160 270 270 337 81 8 353 5 352 327 318 310 288 316 336 314 314 304 316 308 292 276 270 254 254 250 246 244 242 246 249 251 256 260 264 259 254 252 253 250 247 241 236 224 221 221 212
40 124 249 259 308 64 37 9 352 348 321 311 315 316 310 326 334 309 307 311 311 305 284 266 264 263 255 253 254 249 249 249 250 252 256 259 265 260 250 249 250 247 247 240 231 221 223 221 212
333 242 244 260 80 106 342 22 0 335 122 199 329 306 319 303 317 321 325 328 318 302 281 266 267 262 264 265 256 250 247 252 251 251 254 260 264 256 248 243 250 244 247 241 230 217 220 221 211
321 263 247 252 105 85 234 0 344 337 338 338 344 316 323 359 339 344 333 329 324 309 295 283 273 264 264 262 261 256 254 254 255 256 256 257 261 257 246 239 245 241 242 239 230 215 217 218 213
272 289 242 325 67 91 187 357 333 330 333 315 313 327 4 9 356 338 334 331 324 311 296 293 284 267 261 260 258 257 255 253 255 254 255 255 258 257 251 249 245 245 246 240 231 217 216 214 214
291 278 360 349 34 196 56 342 329 343 334 40 332 304 338 4 352 343 346 344 338 325 312 304 295 278 266 263 260 258 256 255 254 252 252 255 255 254 254 252 248 248 245 241 228 217 218 213 210
287 268 262 71 28 37 51 319 332 329 20 9 5 13 354 344 348 356 1 1 349 338 335 317 299 293 285 267 263 260 260 259 256 250 251 251 251 250 254 254 250 248 244 240 225 218 217 215 208
311 245 281 54 308 356 73 334 357 325 314 45 31 24 359 358 8 17 18 16 11 0 343 323 313 295 283 281 267 267 263 259 255 250 250 251 248 249 254 254 252 245 241 237 223 218 216 209 205
281 286 63 25 328 317 334 351 338 346 53 20 9 359 16 20 28 30 26 22 18 15 8 358 326 301 290 273 272 265 266 260 247 247 250 250 247 246 244 248 247 244 238 235 220 215 218 211 208
23 348 45 56 306 320 328 340 339 337 61 20 355 0 24 28 27 29 26 21 18 14 13 9 5 340 301 285 280 266 265 256 253 250 247 250 248 240 242 241 238 236 232 224 204 212 221 212 205
294 69 41 241 290 319 340 326 42 66 65 360 28 50 40 35 30 25 21 16 14 11 6 7 6 4 348 308 282 278 263 259 255 253 249 245 241 237 235 236 232 230 231 224 211 206 190 203 186
240 101 26 295 298 312 328 357 80 73 15 35 70 54 41 37 31 23 18 13 10 7 3 359 2 1 353 342 304 281 276 262 255 254 251 245 239 237 235 232 228 232 229 224 212 189 182 154 162
347 301 278 113 312 291 353 328 184 71 5 74 72 54 40 32 24 17 13 8 6 2 359 354 353 357 350 347 332 303 274 274 259 256 250 249 241 235 231 229 229 229 230 228 215 216 227 240 238
300 297 113 151 216 288 323 193 166 2 12 83 56 40 32 26 21 16 8 3 358 358 355 358 352 349 346 342 338 323 309 273 271 257 258 250 245 234 228 232 229 231 224 223 222 223 231 235 218
210 225 5 129 233 183 330 304 103 19 72 111 69 44 26 16 15 9 4 358 355 353 351 350 350 345 341 341 329 325 315 295 274 267 259 250 246 237 227 232 228 230 220 217 220 208 195 188 179
205 332 315 299 213 213 318 297 317 50 120 121 69 32 14 7 6 2 360 357 351 347 344 345 348 343 337 332 330 316 310 306 287 276 262 259 247 242 232 232 226 221 212 205 206 192 190 187 188
303 303 300 291 36 312 277 279 314 96 125 113 58 24 15 12 4 353 349 351 351 347 339 336 339 336 332 327 323 318 304 299 299 288 273 262 249 246 237 226 227 219 212 207 207 207 202 195 189
299 290 293 290 112 306 304 300 335 125 136 122 49 23 16 13 357 352 351 349 348 347 338 332 334 329 328 324 318 317 316 307 293 296 291 268 258 246 230 233 225 220 216 210 208 201 197 196 186
293 291 298 313 191 310 308 297 134 156 142 129 37 20 11 358 350 349 350 349 345 341 338 326 322 328 317 312 310 310 308 306 314 294 284 290 258 247 245 236 229 225 219 209 209 202 195 191 192
288 302 316 298 305 282 286 283 157 173 154 135 32 3 358 353 351 351 352 345 339 334 331 326 320 317 317 305 305 306 305 305 305 308 286 274 297 252 246 235 234 229 225 214 210 204 197 190 193
297 12 316 304 310 302 317 290 169 181 179 130 18 4 354 350 353 352 344 340 335 329 325 320 315 313 312 304 299 300 302 297 302 304 312 292 268 293 253 239 233 220 232 217 207 205 201 198 194
297 342 303 290 285 298 277 242 258 166 200 103 9 359 354 352 348 346 340 334 329 325 322 317 311 312 308 303 295 296 294 295 295 297 300 318 280 279 314 234 227 232 219 221 207 207 202 204 199
303 287 299 275 268 263 142 260 237 183 181 356 357 355 352 347 343 336 334 328 325 324 320 316 310 309 307 301 298 292 291 291 293 289 293 304 298 277 282 239 230 227 218 215 208 209 207 205 205
261 307 313 298 232 276 152 317 248 142 128 36 356 353 346 342 336 333 330 328 325 324 322 318 317 310 308 302 298 292 290 285 288 285 285 297 313 296 286 292 239 225 227 215 215 208 205 204 198
316 291 263 288 295 294 313 254 294 135 142 10 352 351 344 336 332 330 328 326 325 323 321 316 318 317 312 309 304 295 291 282 283 282 278 287 301 302 275 283 301 220 214 226 208 210 209 202 200
139 215 14 288 261 278 237 239 142 159 215 350 342 347 340 331 329 328 326 327 326 326 323 318 315 311 304 299 291 290 299 288 282 280 277 280 291 305 288 275 257 310 225 210 207 208 205 200 201
264 123 180 201 270 269 268 299 273 188 340 340 345 339 333 328 326 328 328 328 329 327 325 323 320 314 310 309 301 289 284 285 296 281 274 275 283 293 291 284 271 256 225 206 207 200 200 197 197
186 217 222 285 241 263 299 283 114 5 358 345 333 334 330 330 329 329 328 330 328 329 326 323 321 318 314 309 311 306 299 277 276 293 278 272 277 283 283 295 286 253 295 206 200 202 201 203 199
273 244 215 217 216 226 266 275 281 224 355 343 333 330 329 328 326 324 328 327 328 328 327 324 322 318 313 310 306 305 303 296 283 275 285 284 270 274 286 290 301 264 252 251 210 198 206 205 198